Tracking 26894 objects as of 2-Feb-2023
HD Live streaming from Space Station
objects crossing your sky now

NOAA 17 DEB

Track NOAA 17 DEB now!
10-day predictions


NORAD ID: 48722
Int'l Code: 2002-032BG
Perigee: 758.2 km
Apogee: 791.5 km
Inclination: 98.7 °
Period: 100.2 minutes
Semi major axis: 7145 km
RCS: Unknown
Launch date: June 24, 2002
Source: United States (US)
Launch site: AIR FORCE WESTERN TEST RANGE (AFWTR)

Note: This is SATELLITE DEBRIS
Your satellite tracking list
Your tracking list is empty




NASA's NSSDC Master Catalog

Two Line Element Set (TLE):
1 48722U 02032BF  23030.33475000  .00005247  00000-0  17711-2 0  9997
2 48722  98.6838 349.1018 0023296 119.9642 240.3860 14.37207697 97934
Source of the keplerian elements: AFSPC